Regional Weather Roundup
Issued by NWS Cleveland, OH

Home | Current Version | Previous Version | Text Only | Print | Product List | Glossary Off
Versions: 1 2 3 4 5 6 7 8 9 10 11 12 13 14 15 16 17 18 19 20 21 22 23 24 25 26 27 28 29 30 31 32 33 34 35 36 37 38 39 40 41 42 43 44 45 46 47 48 49 50

000
ASUS41 KCLE 021410
RWRCLE
OHIO REGIONAL WEATHER ROUNDUP
NATIONAL WEATHER SERVICE WILMINGTON, OH
1000 AM EDT TUE JUN 02 2015

NOTE: "FAIR" INDICATES FEW OR NO CLOUDS BELOW 12,000 FEET WITH NO
SIGNIFICANT WEATHER AND/OR OBSTRUCTIONS TO VISIBILITY.

OHZ001>008-015>018-024>027-034-035-043-044-021500-
   NORTHWEST OHIO

CITY           SKY/WX    TMP DP  RH WIND       PRES   REMARKS
DEFIANCE       SUNNY     60  48  64 NE10      30.21R
FINDLAY        PTSUNNY   60  50  69 NE17      30.18S
TOLEDO EXPRESS SUNNY     60  47  61 NE13      30.21R
TOLEDO EXEC    MOSUNNY   61  50  67 NE8       30.22R
LIMA           CLOUDY    54  50  86 E12       30.19R
$$

OHZ009>014-019>023-028>033-038-089-021500-
   NORTHEAST OHIO

CITY           SKY/WX    TMP DP  RH WIND       PRES   REMARKS
CLE-HOPKINS    PTSUNNY   59  49  69 NE18      30.20S
CLE-LAKEFRONT  PTSUNNY   58  50  75 NE15      30.19R
CUY CO. ARPT   PTSUNNY   59 N/A N/A NE12G21   30.19S
LORAIN-ELYRIA  MOSUNNY   57  50  77 E17       30.20R
ASHTABULA      PTSUNNY   54  47  77 NE8       30.20R
AKRON-CANTON   CLOUDY    54  48  80 NE8       30.17R
WOOSTER        CLOUDY    53  48  83 NE7       30.18R
MANSFIELD      CLOUDY    53  49  86 N7        30.18R
YOUNGSTOWN     CLOUDY    53  49  86 N9        30.18R
$$

OHZ042-051>053-060>062-070>072-077>081-021500-
  SOUTHWEST OHIO

CITY           SKY/WX    TMP DP  RH WIND       PRES   REMARKS
CINC-COVINGTON CLOUDY    54  49  83 N6        30.16R
CINC-LUNKEN    CLOUDY    55  50  83 N7        30.18R
HAMILTON       CLOUDY    54  49  83 N6        30.18S
DAYTON         CLOUDY    52  49  89 NE9       30.19R FOG
WRIGHT-PAT AFB CLOUDY    52  49  87 N8        30.18R
DAYTON GENERAL CLOUDY    52  49  89 NE8       30.17R
WILMINGTON     CLOUDY    53  48  83 NE8       30.16R
$$

OHZ036-037-039>041-045>050-054>059-063>069-073>076-082>088-021500-
  CENTRAL AND SOUTHEAST OHIO

CITY           SKY/WX    TMP DP  RH WIND       PRES   REMARKS
COLUMBUS       CLOUDY    54  49  83 N8        30.16R
OSU AIRPORT    CLOUDY    54  49  83 N9        30.17R
BOLTON FIELD   CLOUDY    54  50  87 N7        30.17R
RICKENBACK AFB CLOUDY    55  49  80 N9        30.16R
NEWARK         CLOUDY    55  49  80 N7        30.16R
MARION         CLOUDY    53  48  83 NE9       30.19R
LANCASTER      CLOUDY    56  50  80 NE8       30.16R
ZANESVILLE     CLOUDY    55  49  80 N7        30.15R
NEW PHILLY     CLOUDY    57  49  74 N7        30.17R
$$


USA.gov is the U.S. government's official web portal to all federal, state and local government web resources and services.